Retour au catalogue

STARLINK-2431

ActifCommunicationsVLEO
NORAD 47839·PAYLOAD·🇺🇸 United States

Lancé Mar 11, 2021 depuis Cape Canaveral Space Force Station

Loading…

Prochains Passages (prochaines 24 heures)

TLE

FraisSource: CelesTrak SupGP

Époque: Sep 14, 2026, 20:20 UTC

1 47839C 21018BE  26257.84770833  .00043575  00000+0  14017-2 0  2570
2 47839  53.1596  56.6660 0001237  69.9381 268.7540 15.31670176    10

Suivez STARLINK-2431 en temps réel avec AllMySat

Download on the App Store